Regional Weather Roundup
Issued by NWS

Home | Current Version | Previous Version | Graphics & Text | Print | Product List | Glossary On
Versions: 1 2 3 4 5 6 7 8 9 10 11 12 13 14 15 16 17 18 19 20 21 22 23 24 25 26 27 28 29 30 31 32 33 34 35 36 37 38 39 40 41 42 43 44 45 46 47 48 49 50
000
ASUS45 KABQ 311610
RWRNM
NEW MEXICO REGIONAL WEATHER ROUNDUP
NATIONAL WEATHER SERVICE ALBUQUERQUE NM
1000 AM MDT FRI JUL 31 2015

NOTE: "FAIR" MEANS FEW OR NO CLOUDS BELOW 12,000 FEET AGL WITH NO
       SIGNIFICANT WEATHER OR OBSTRUCTIONS TO VISION.

      THIS PRODUCT IS RELEASED AS TWO VERSIONS.  ONE VERSION NEAR
      THE TOP OF THE HOUR CONTAINING PRELIMINARY DATA FROM ALBUQUERQUE
      AND OTHER STATIONS.  A FINAL VERSION WITH ADDITIONAL DATA IS
      ISSUED ABOUT 10 MINUTES AFTER THE HOUR.

NMZ501-503-504-510>518-311700-
NORTHWEST PLATEAU/NORTHCENTRAL MOUNTAINS

CITY           SKY/WX    TMP DP  RH WIND       PRES   REMARKS
FARMINGTON     CLOUDY    70  61  73 NE5       30.36F
LOS ALAMOS     CLOUDY    65  58  78 CALM      30.50S
SANTA FE       CLOUDY    69  57  65 S6        30.43S
TAOS           PTSUNNY   66  50  55 W5        30.49F
ANGEL FIRE     FAIR      59  54  83 CALM      30.57F

$$
NMZ402-403-502-505>509-311700-
WESTCENTRAL MOUNTAINS/SOUTHWEST MOUNTAINS

CITY           SKY/WX    TMP DP  RH WIND       PRES   REMARKS
GALLUP         SUNNY     73  58  59 VRB3      30.41S
GRANTS         CLOUDY    69  60  72 SE13G21   30.45S
SILVER CITY      N/A     72  63  73 W5        30.36S

$$
NMZ407-409-411-412-311700-
SOUTHERN DESERTS

CITY           SKY/WX    TMP DP  RH WIND       PRES   REMARKS
LORDSBURG      FAIR      75  57  53 SE5       30.28S
DEMING         CLOUDY    71  62  73 CALM      30.28F
LAS CRUCES     CLOUDY    74  64  70 N7        30.29S
HOLLOMAN AFB   MOSUNNY   83  57  41 W5        30.25F
ALAMOGORDO     MOSUNNY   81  57  44 N6        30.28F
T OR C         CLOUDY    71  62  73 CALM      30.32F

$$
NMZ519>523-311700-
CENTRAL VALLEYS/CENTRAL HIGHLANDS

CITY           SKY/WX    TMP DP  RH WIND       PRES   REMARKS
ALBUQUERQUE    PTSUNNY   73  60  63 S8        30.38S
DOUBLE EAGLE   PTSUNNY   72  61  68 CALM      30.41S
MORIARTY ARPT    N/A     67  59  73 CALM      30.44F
CLINES CORNERS NOT AVBL
BELEN          FAIR      75  59  57 S3        30.36S
SOCORRO        FAIR      71  62  74 SE7       30.34S

$$
NMZ524>526-539-540-311700-
SOUTHCENTRAL MOUNTAINS

CITY           SKY/WX    TMP DP  RH WIND       PRES   REMARKS
RUIDOSO          N/A    N/A N/A N/A MISG        N/A

$$
NMZ527>531-311700-
NORTHEAST HIGHLANDS/NORTHEAST PLAINS

CITY           SKY/WX    TMP DP  RH WIND       PRES   REMARKS
LAS VEGAS      PTSUNNY   66  57  72 S9        30.47S
RATON          SUNNY     69  57  65 VRB3      30.42F
CLAYTON        PTSUNNY   71  64  78 S12       30.36S

$$
NMZ532>537-311700-
EASTCENTRAL PLAINS

CITY           SKY/WX    TMP DP  RH WIND       PRES   REMARKS
TUCUMCARI      LGT RAIN  69  65  86 CALM      30.31S
CANNON AFB     PTSUNNY   73  65  75 N9        30.31S
CLOVIS AIRPORT PTSUNNY   73  64  73 N10       30.33S

$$
NMZ028-029-538-311700-
SOUTHEAST PLAINS

CITY           SKY/WX    TMP DP  RH WIND       PRES   REMARKS
ROSWELL        PTSUNNY   78  63  59 N10       30.27S
ARTESIA        MOSUNNY   81  64  57 N8G16     30.27R
CARLSBAD       SUNNY     85  64  49 NW13      30.23S
HOBBS          SUNNY     86  52  30 VRB5      30.26S


$$



USA.gov is the U.S. government's official web portal to all federal, state and local government web resources and services.